Time,TemperatureF,DewpointF,PressureIn,WindDirection,WindDirectionDegrees,WindSpeedMPH,WindSpeedGustMPH,Humidity,HourlyPrecipIn,Conditions,Clouds,dailyrainin,SoftwareType,DateUTC
2017-03-25 00:08:00,37.0,34.0,30.17,NE,44,3.0,14.0,87,-99.99,,,-99.99,,2017-03-25 05:08:00,
2017-03-25 00:26:00,37.0,34.0,30.17,NE,50,5.0,13.0,87,-99.99,,,-99.99,,2017-03-25 05:26:00,
2017-03-25 00:47:00,37.0,34.0,30.17,East,95,5.0,10.0,87,-99.99,,,-99.99,,2017-03-25 05:47:00,
2017-03-25 01:07:00,37.0,33.0,30.20,East,80,3.0,9.0,86,-99.99,,,-99.99,,2017-03-25 06:07:00,
2017-03-25 01:27:00,37.0,33.0,30.20,NE,38,5.0,11.0,85,-99.99,,,-99.99,,2017-03-25 06:27:00,
2017-03-25 02:08:00,37.0,33.0,30.19,NNE,28,5.0,13.0,85,-99.99,,,-99.99,,2017-03-25 07:08:00,
2017-03-25 02:47:00,36.0,32.0,30.18,ENE,59,4.0,14.0,85,-99.99,,,-99.99,,2017-03-25 07:47:00,
2017-03-25 03:27:00,36.0,32.0,30.17,NNE,33,6.0,10.0,85,-99.99,,,-99.99,,2017-03-25 08:27:00,
2017-03-25 04:17:00,36.0,32.0,30.16,NE,39,8.0,14.0,86,-99.99,,,-99.99,,2017-03-25 09:17:00,
2017-03-25 05:27:00,36.0,32.0,30.16,NE,50,7.0,15.0,86,-99.99,,,-99.99,,2017-03-25 10:27:00,
2017-03-25 06:07:00,36.0,32.0,30.17,NNE,23,7.0,16.0,85,-99.99,,,-99.99,,2017-03-25 11:07:00,
2017-03-25 06:26:00,35.0,31.0,30.17,ENE,59,3.0,13.0,85,-99.99,,,-99.99,,2017-03-25 11:26:00,
2017-03-25 07:27:00,36.0,32.0,30.17,NNE,26,7.0,-999.0,85,-99.99,,,-99.99,,2017-03-25 12:27:00,
2017-03-25 08:07:00,35.0,31.0,30.17,NE,36,3.0,11.0,85,-99.99,,,-99.99,,2017-03-25 13:07:00,
2017-03-25 09:08:00,36.0,32.0,30.17,ENE,70,3.0,17.0,85,-99.99,,,-99.99,,2017-03-25 14:08:00,
2017-03-25 09:27:00,36.0,32.0,30.18,NE,54,7.0,16.0,85,-99.99,,,-99.99,,2017-03-25 14:27:00,
2017-03-25 12:08:00,37.0,32.0,30.16,ENE,63,9.0,17.0,83,-99.99,,,-99.99,,2017-03-25 17:08:00,
2017-03-25 12:28:00,37.0,32.0,30.15,North,-9999,-999.9,-999.0,82,-99.99,,,-99.99,,2017-03-25 17:28:00,
2017-03-25 12:59:00,38.0,33.0,30.14,NE,54,9.0,15.0,81,-99.99,,,-99.99,,2017-03-25 17:59:00,
2017-03-25 13:17:00,38.0,32.0,30.15,ENE,57,10.0,17.0,80,-99.99,,,-99.99,,2017-03-25 18:17:00,
2017-03-25 13:37:00,39.0,33.0,30.14,NE,42,8.0,15.0,80,-99.99,,,-99.99,,2017-03-25 18:37:00,
2017-03-25 14:07:00,40.0,34.0,30.13,NE,51,4.0,11.0,79,-99.99,,,-99.99,,2017-03-25 19:07:00,
2017-03-25 15:17:00,40.0,34.0,30.10,NE,42,7.0,18.0,79,-99.99,,,-99.99,,2017-03-25 20:17:00,
2017-03-25 15:27:00,40.0,34.0,30.09,NE,37,9.0,15.0,78,-99.99,,,-99.99,,2017-03-25 20:27:00,
2017-03-25 17:37:00,40.0,34.0,30.07,NE,48,6.0,11.0,79,-99.99,,,-99.99,,2017-03-25 22:37:00,
2017-03-25 19:17:00,40.0,34.0,30.06,NE,47,6.0,14.0,79,-99.99,,,-99.99,,2017-03-26 00:17:00,